Houston Hull, TX

8:14 AM CST on December 12, 2019 (GMT -0600)
Sugar Land Municipal-Hull

Weather History for KSGR - October, 2019

Change the Weather History Date:

Sunday, October 27, 2019

  Actual Average Record
Temperature  
Mean Temperature 64 °F -  
Max Temperature 79 °F 78 °F 93 °F (2010)
Min Temperature 50 °F 56 °F 36 °F (1957)
Growing Degree Days 14 (Base 50)    
Moisture  
Dew Point 56 °F    
Average Humidity 75    
Maximum Humidity 100    
Minimum Humidity 50    
Precipitation  
Precipitation 0.00 in - - ()
Sea Level Pressure  
Sea Level Pressure 29.96 in    
Wind  
Wind Speed 4 mph (SE)    
Max Wind Speed 14 mph    
Max Gust Speed -    
Visibility 10 miles    
Events      
Averages and records for this station are not official NWS values.
T = Trace of Precipitation, MM = Missing Value Source: NWS Daily Summary

Daily Weather History Graph

Daily Weather History Graph

Search for Another Location

Airport or City:

Astronomy

Oct. 27, 2019 Rise Set
Actual Time 7:32 AM CDT 6:40 PM CDT
Civil Twilight 7:07 AM CDT 7:04 PM CDT
Nautical Twilight 6:39 AM CDT 7:32 PM CDT
Astronomical Twilight 6:11 AM CDT 8:00 PM CDT
Moon 6:50 AM CDT (10/27) 6:45 PM CDT (10/27)
Length of Visible Light 11h 56m
Length of Day
11h 08m
Waning Crescent, 0% of the Moon is Illuminated
Oct 27
Waning Crescent
Oct 27
New
Nov 4
First Quarter
Nov 12
Full
Nov 19
Last Quarter

Hourly Weather History & Observations

Time (CDT) Temp. Dew Point Humidity Pressure Visibility Wind Dir Wind Speed Gust Speed Precip Events Conditions
12:53 AM 52.0 °F 51.1 °F 97% 29.93 in 10.0 mi Calm Calm - N/A   Clear
1:53 AM 51.1 °F 50.0 °F 96% 29.93 in 10.0 mi Calm Calm - N/A   Clear
2:53 AM 51.1 °F 50.0 °F 96% 29.94 in 10.0 mi Calm Calm - N/A   Clear
3:53 AM 51.1 °F 50.0 °F 96% 29.94 in 10.0 mi SSE 3.5 mph - N/A   Clear
4:53 AM 50.0 °F 50.0 °F 100% 29.94 in 10.0 mi Calm Calm - N/A   Clear
5:53 AM 51.1 °F 48.9 °F 92% 29.96 in 10.0 mi Calm Calm - N/A   Clear
6:53 AM 50.0 °F 48.9 °F 96% 29.97 in 10.0 mi Calm Calm - N/A   Clear
7:53 AM 50.0 °F 50.0 °F 100% 29.99 in 10.0 mi Calm Calm - N/A   Clear
8:53 AM 60.1 °F 55.0 °F 83% 30.00 in 10.0 mi NNE 3.5 mph - N/A   Clear
9:53 AM 66.0 °F 55.9 °F 70% 30.02 in 10.0 mi SE 3.5 mph - N/A   Clear
10:53 AM 71.1 °F 57.9 °F 63% 30.03 in 10.0 mi SSE 6.9 mph - N/A   Clear
11:53 AM 73.9 °F 57.0 °F 55% 30.02 in 10.0 mi SSW 9.2 mph - N/A   Clear
12:53 PM 75.0 °F 55.9 °F 51% 30.00 in 10.0 mi Variable 3.5 mph - N/A   Clear
1:53 PM 77.0 °F 57.9 °F 52% 29.97 in 10.0 mi South 8.1 mph - N/A   Clear
2:53 PM 78.1 °F 57.9 °F 50% 29.95 in 10.0 mi North - - N/A   Clear
3:02 PM 78.1 °F 57.9 °F 50% 29.94 in 10.0 mi SSE 13.8 mph - N/A   Clear
3:28 PM 78.1 °F 59.0 °F 52% 29.93 in 10.0 mi SSE 13.8 mph - N/A   Clear
3:53 PM 79.0 °F 60.1 °F 52% 29.94 in 10.0 mi SSE 13.8 mph - N/A   Clear
4:53 PM 78.1 °F 60.1 °F 54% 29.94 in 10.0 mi SE 8.1 mph - N/A   Clear
5:53 PM 75.0 °F 61.0 °F 62% 29.93 in 10.0 mi SE 9.2 mph - N/A   Clear
6:53 PM 71.1 °F 61.0 °F 70% 29.94 in 10.0 mi SSE 11.5 mph - N/A   Clear
7:53 PM 69.1 °F 61.0 °F 75% 29.96 in 10.0 mi SE 9.2 mph - N/A   Clear
8:53 PM 66.9 °F 61.0 °F 81% 29.97 in 10.0 mi SE 6.9 mph - N/A   Clear
9:53 PM 66.0 °F 61.0 °F 84% 29.98 in 10.0 mi ESE 5.8 mph - N/A   Clear
10:53 PM 64.9 °F 61.0 °F 87% 29.98 in 10.0 mi ESE 6.9 mph - N/A   Clear
11:53 PM 64.9 °F 61.0 °F 87% 29.97 in 10.0 mi ESE 6.9 mph - N/A   Clear